Location: Barcelona
(41.3830°N, 2.1830°E)
Time: 05:59:39
(UTC+02:00)

ISS - Pass Details

Date: 23 March 2018
Orbit: 402 x 408 km, 51.6° (Epoch: 19 July)

Event Time Altitude Azimuth Distance (km) Brightness Sun altitude
Rises 20:23:18 0° 210° (SSW) 2,337 0.2 -15.0°
Reaches altitude 10° 20:25:32 10° 199° (SSW) 1,481 -0.9 -15.4°
Enters shadow 20:28:04 29° 151° (SSE) 795 -2.8 -15.9°
